Wind_Speed
13 14 15 16 17 16 17 17 17 17 18 18 18 19 20 22 22 12 7 11 6 15 11 9 6 9 11 5 7 6 3 9 15 8 6 4 10 6 13 6 4 5 15 23 29
14 16 17 17 18 18 19 19 18 17 17 18 19 19 19 19 18 13 14 12 11 6 10 10 7 8 2 5 5 1 4 10 17 9 5 6 5 12 11 17 11 20 18 23 23
16 18 19 20 20 20 21 20 18 18 17 18 19 18 16 11 5 6 8 12 11 9 11 13 13 7 7 6 8 8 9 14 19 12 13 6 12 6 19 11 13 10 5 10 11
18 19 21 21 22 22 21 20 18 16 14 14 15 14 10 3 3 2 10 7 5 7 6 9 7 5 6 8 10 7 14 16 18 15 9 4 2 6 18 14 28 21 19 13 11
19 20 22 23 23 23 22 18 14 15 14 13 12 8 2 3 9 7 7 5 5 7 10 8 7 4 6 9 7 7 13 14 14 12 8 7 5 8 11 22 22 17 13 10 12
20 22 22 24 24 24 20 13 13 10 10 11 9 0 0 4 8 8 6 7 5 10 14 15 9 10 8 7 4 8 9 13 11 12 6 5 4 4 10 17 18 15 13 10 8
21 23 23 23 25 23 17 11 11 8 9 8 4 4 4 12 5 6 7 8 13 13 10 20 21 4 7 8 9 10 9 10 9 6 8 8 3 7 20 16 19 14 7 6 8
23 24 24 24 25 21 13 12 8 6 6 5 1 3 6 7 6 9 10 16 15 12 9 15 16 4 3 8 10 8 5 6 10 8 11 2 7 9 23 21 19 25 19 11 21
24 25 24 25 23 18 12 12 6 3 3 3 1 2 7 6 7 11 15 13 10 9 4 9 9 4 8 6 7 6 6 8 11 14 11 10 7 8 16 21 23 26 31 30 26
26 27 25 24 21 15 12 13 5 1 3 4 8 4 8 10 8 14 8 11 3 5 4 3 3 4 4 2 7 7 6 9 9 13 9 9 8 9 10 8 29 26 27 20 12
28 28 26 22 17 14 13 4 2 1 5 9 5 6 5 9 5 3 12 8 9 4 6 7 2 8 14 14 12 9 6 8 9 13 2 9 2 6 8 3 21 16 10 17 23
28 28 26 18 13 13 11 1 5 8 8 13 19 11 8 5 5 9 12 5 6 8 8 1 9 15 9 4 4 8 8 11 11 9 3 3 5 6 9 6 16 15 14 16 12
29 29 25 16 12 12 8 7 8 8 3 9 13 6 5 5 7 9 11 8 8 9 10 8 10 8 2 7 7 6 6 8 9 11 9 4 7 9 9 7 8 11 14 26 31
29 28 22 14 9 10 6 9 10 9 3 6 7 4 5 6 5 12 16 8 6 10 10 8 7 5 5 4 6 5 10 8 12 5 4 3 6 8 8 11 8 10 9 28 28
28 27 18 12 12 7 9 10 12 2 3 10 7 16 10 7 8 4 16 6 10 12 6 12 7 2 1 9 9 8 6 6 7 8 7 12 3 8 10 8 8 11 12 11 19
28 25 16 4 11 9 15 13 5 2 5 5 6 7 8 10 6 7 6 4 6 8 11 11 6 4 2 8 6 7 7 9 7 2 5 7 4 10 9 7 9 7 9 10 19
27 22 13 9 4 13 16 9 1 3 3 7 6 6 12 10 7 8 8 6 4 3 4 8 4 5 6 2 8 3 1 3 5 1 8 6 6 8 10 27 26 7 10 17 11
28 19 8 13 11 11 12 3 4 7 8 4 5 1 5 1 3 3 4 6 7 2 5 4 7 11 4 0 2 6 5 5 3 5 5 6 3 4 21 22 30 28 23 20 16
27 14 7 6 3 7 2 3 5 5 14 4 2 2 5 3 1 6 5 4 3 7 3 4 7 6 16 8 4 7 4 2 7 6 4 2 9 17 22 21 18 15 16 17 13
22 8 9 12 8 1 0 5 5 9 6 7 4 3 6 5 6 5 4 5 4 7 8 4 3 5 12 6 5 5 2 6 5 2 7 5 5 2 10 10 15 11 8 12 13
8 3 4 5 8 1 3 6 11 11 6 5 7 7 7 6 2 3 4 9 8 6 4 4 1 6 8 3 9 8 3 6 3 2 3 3 2 6 2 6 4 7 6 7 7
8 2 10 4 0 3 4 5 5 9 5 2 3 5 6 8 7 5 6 4 4 3 3 2 2 3 7 14 10 7 3 4 5 6 1 3 6 8 8 8 7 7 4 8 8
4 4 7 6 2 4 7 14 2 4 3 2 3 4 5 6 5 5 3 4 4 5 3 4 4 4 9 6 6 5 6 3 3 2 4 2 5 4 7 4 5 7 7 8 7
3 3 2 1 3 6 6 7 2 5 2 4 5 7 5 3 5 4 4 4 5 5 7 6 1 3 5 6 4 7 10 3 6 3 4 8 7 10 2 6 6 6 9 10 10
3 2 5 4 5 6 7 9 9 2 3 4 1 6 7 2 6 7 6 1 7 8 4 4 2 3 8 11 13 12 12 9 5 6 5 10 7 6 9 6 5 6 10 10 9
3 4 4 5 8 6 4 5 9 10 1 6 6 6 6 4 6 6 6 6 6 6 5 4 3 4 5 11 14 17 13 11 10 11 11 12 12 8 2 10 13 10 12 10 7
10 9 3 6 6 5 5 7 6 4 5 7 8 6 9 7 6 5 4 4 3 3 4 4 1 0 4 8 14 9 9 9 9 9 8 10 12 10 12 12 9 8 9 8 9
Wind_Direction
345 341 338 334 330 325 320 316 310 307 303 305 301 301 305 307 315 305 250 240 228 251 261 282 245 247 258 268 274 264 292 262 272 294 233 287 120 144 168 95 150 197 141 153 163
345 342 336 334 330 324 322 317 311 305 304 301 298 300 305 321 317 251 261 229 256 233 237 228 206 221 248 284 288 273 245 253 264 281 292 288 219 141 99 77 38 92 110 139 162
345 341 336 334 328 325 322 320 313 306 302 296 294 297 309 333 300 237 205 226 236 245 239 264 287 188 204 229 249 261 251 270 279 288 297 217 120 131 102 70 112 113 133 141 171
344 340 335 332 328 326 325 322 316 315 308 297 296 301 321 9 354 185 163 198 224 227 232 256 260 231 209 225 244 233 259 257 271 280 298 251 325 183 138 166 144 158 152 159 197
343 338 335 333 329 327 328 324 324 317 309 304 303 308 17 225 251 191 187 196 183 169 229 261 285 264 235 232 252 237 251 258 265 278 280 289 338 99 118 151 153 152 168 149 191
346 341 336 332 328 329 328 325 324 320 319 311 305 59 261 267 173 157 187 172 164 179 228 237 246 250 274 274 256 251 253 258 270 275 287 296 226 90 183 162 169 170 159 152 240
346 341 337 332 330 329 326 324 321 310 315 311 315 111 269 242 14 155 188 205 195 214 229 248 247 271 311 312 274 291 296 308 285 264 274 307 277 252 173 170 157 149 111 355 317
345 343 337 333 330 328 324 325 316 304 312 319 120 90 253 268 243 179 212 230 242 239 297 319 320 337 344 306 318 300 299 279 282 276 268 224 257 281 163 155 125 108 113 256 272
344 343 340 334 330 327 326 325 300 317 333 335 94 182 270 203 218 215 216 235 202 242 258 278 325 278 300 271 306 285 239 245 264 247 228 182 226 230 162 157 149 147 157 190 226
346 344 341 334 328 321 327 325 298 319 335 315 269 300 272 233 186 216 238 285 253 259 254 187 243 230 280 206 241 264 239 269 246 251 231 214 201 228 227 231 166 174 186 200 162
346 343 339 333 325 318 337 341 12 49 238 220 230 226 250 123 124 238 205 216 260 203 244 219 154 220 229 231 233 255 292 316 308 321 149 178 212 258 244 117 151 196 182 131 144
346 342 338 333 320 308 323 252 36 287 303 267 245 235 275 312 180 197 197 211 225 241 250 249 232 242 252 272 14 3 345 312 309 315 19 0 311 291 281 219 179 184 178 144 129
345 344 339 332 316 293 251 298 315 330 275 285 222 249 179 169 242 171 160 223 261 257 254 223 244 251 9 343 345 323 290 291 282 310 335 91 317 288 285 256 189 190 172 149 154
346 343 338 332 316 306 251 351 357 12 325 252 184 186 147 218 242 184 177 208 259 237 263 266 259 72 58 307 287 290 256 270 248 324 282 87 278 293 261 269 194 194 177 167 176
343 341 337 319 308 305 359 344 352 349 297 165 167 154 171 206 136 178 177 200 254 281 324 285 308 186 241 249 248 243 356 358 344 347 22 310 13 277 304 276 220 210 207 189 175
341 341 330 340 303 289 335 328 301 8 252 134 141 182 176 222 217 149 174 222 295 296 304 286 285 344 329 344 341 9 354 352 342 334 312 278 242 288 282 252 267 253 204 208 173
340 335 310 276 244 343 341 318 347 222 308 161 186 173 208 211 197 164 170 174 217 309 291 324 322 348 302 227 309 179 53 316 324 336 237 313 324 247 326 47 27 334 29 21 78
337 328 299 261 266 315 327 341 245 262 262 56 23 106 322 278 296 183 188 198 232 23 10 14 350 346 311 27 291 337 172 166 294 316 273 276 259 27 41 39 57 21 47 45 55
336 341 289 262 240 273 26 264 237 2 349 38 220 259 270 202 215 354 288 128 112 55 86 357 337 328 331 325 62 312 343 298 230 292 7 332 359 20 18 30 46 54 42 50 84
336 327 264 261 193 224 186 257 298 290 7 360 340 299 263 256 151 170 279 25 99 76 69 342 334 295 307 292 273 214 6 23 18 47 315 355 61 19 343 7 37 40 54 85 99
336 322 147 182 167 94 222 253 312 69 49 353 338 344 323 350 353 348 25 44 41 42 52 20 43 307 347 311 8 347 28 59 118 178 238 312 224 210 134 304 317 99 90 89 108
329 287 164 181 65 217 230 248 290 103 86 328 302 322 318 356 6 352 67 61 21 351 42 30 212 270 250 284 292 283 1 105 102 295 128 139 269 205 210 195 256 118 77 75 112
322 268 250 178 238 254 289 263 172 16 58 319 317 343 15 354 10 355 39 97 1 61 66 330 342 338 327 337 29 30 42 146 172 360 252 181 273 184 227 168 85 72 143 118 108
288 296 295 170 245 281 318 306 169 91 33 351 1 348 3 338 318 307 310 160 92 110 138 89 229 191 216 264 317 309 315 122 117 109 276 288 306 322 225 136 154 81 95 147 156
235 315 346 331 349 354 2 339 316 105 226 110 8 259 274 269 300 288 324 101 154 151 106 113 237 273 283 293 301 296 295 294 187 236 218 276 273 297 305 70 121 82 82 77 74
343 3 351 295 303 301 316 300 308 294 267 194 183 296 330 21 45 27 22 31 53 317 159 179 253 331 305 299 290 289 285 274 274 275 282 284 283 252 55 77 64 55 59 60 53
9 349 343 294 311 311 256 249 285 328 9 65 59 19 55 24 357 329 319 279 266 327 334 346 156 6 256 307 318 298 257 275 264 255 233 252 254 114 87 74 65 53 51 43 41
Height
810 807 805 803 800 797 795 792 790 788 788 785 784 781 778 778 774 772 767 759 758 758 759 759 760 760 762 762 758 754 791 795 777 773 755 734 748 742 739 757 752 754 760 771 779
810 807 805 801 798 796 793 790 787 786 784 784 782 779 777 776 772 766 754 756 757 757 759 759 759 759 767 763 761 769 791 778 750 751 753 737 736 741 744 761 778 767 771 778 782
809 806 803 800 797 794 791 787 785 783 781 781 779 777 776 776 775 753 749 753 755 756 757 757 757 758 769 763 765 766 780 757 744 742 736 736 736 728 761 784 777 783 780 779 784
808 805 802 798 795 792 787 784 781 779 778 778 776 775 776 777 779 750 751 753 753 755 758 756 754 763 769 774 758 774 756 748 740 733 736 740 728 732 740 757 748 759 757 763 780
807 805 800 796 793 789 784 781 779 777 776 776 774 774 776 777 765 752 752 752 753 755 757 756 757 757 768 762 757 763 754 742 734 733 732 725 731 741 754 753 749 754 754 762 774
806 803 798 793 790 785 782 779 777 776 775 774 773 773 776 777 750 750 752 753 753 754 754 753 754 748 756 756 760 748 747 742 732 734 731 736 729 730 762 748 752 754 759 763 776
804 801 796 791 787 783 779 777 776 776 774 773 773 774 775 765 750 749 751 751 751 750 751 749 746 750 750 756 739 742 756 745 739 730 734 728 741 737 746 755 756 765 772 773 779
802 798 794 789 784 780 778 777 775 774 773 773 773 775 771 749 750 750 751 750 750 750 748 746 744 744 750 747 749 759 751 777 748 733 728 734 771 734 745 753 771 774 778 788 786
801 797 791 786 782 778 777 775 774 773 774 775 775 775 768 748 748 748 749 747 748 749 748 748 748 754 756 771 782 765 787 774 760 728 731 739 756 730 734 755 766 771 773 768 771
798 794 789 785 781 778 776 773 772 773 774 775 776 781 756 749 745 746 747 747 747 748 750 752 758 771 772 782 809 788 780 769 763 734 730 740 744 730 720 722 754 764 762 757 771
796 792 787 784 780 776 774 773 775 778 774 767 757 752 742 742 744 745 746 748 747 751 771 759 779 790 773 761 755 757 761 763 744 724 724 738 736 731 723 725 749 754 743 757 766
795 791 786 781 778 775 774 774 771 771 774 752 749 744 740 740 747 743 745 755 756 771 759 769 783 755 744 741 748 754 764 766 744 727 729 734 739 729 723 722 728 732 739 751 765
794 787 783 780 777 775 772 771 769 767 776 750 739 738 740 741 747 744 743 749 760 766 761 772 757 736 739 750 756 758 766 764 762 739 732 733 752 741 721 715 713 711 714 738 744
791 787 783 778 778 775 772 770 769 767 792 759 746 739 739 739 749 731 738 746 751 763 755 754 735 741 749 755 752 774 746 747 749 760 788 745 800 754 732 725 716 711 712 730 739
790 786 782 779 777 774 772 769 768 769 819 744 742 730 734 747 738 739 733 740 760 757 755 763 749 745 752 752 743 760 740 747 750 767 775 767 789 766 734 735 723 714 706 707 718
788 784 780 779 777 772 770 770 770 801 809 750 735 743 749 740 736 736 739 736 739 752 747 750 727 733 739 736 736 734 749 758 760 772 808 777 782 769 754 734 717 708 703 702 706
784 781 779 779 775 771 772 770 802 809 739 755 747 738 744 746 742 741 750 759 772 778 776 757 746 737 731 747 741 744 767 813 818 813 810 766 775 770 738 740 728 709 712 720 709
781 778 775 775 774 774 774 788 808 765 752 733 738 739 751 740 744 741 749 766 753 758 776 785 794 756 734 743 756 758 770 810 821 818 795 752 777 776 751 750 733 738 733 738 748
779 775 772 771 772 774 783 806 785 759 748 744 743 758 758 745 748 752 754 760 756 757 784 790 784 751 744 738 743 763 785 756 787 783 797 780 774 752 756 752 746 756 752 752 753
779 775 770 768 771 774 790 794 774 750 747 748 768 753 766 755 759 760 760 751 755 752 757 772 797 759 754 738 739 753 762 795 805 821 824 797 804 801 781 773 753 761 766 764 759
780 779 767 768 769 778 797 779 760 746 750 760 765 767 757 760 753 760 762 761 755 759 756 769 782 782 762 763 778 776 784 804 806 805 819 819 810 781 773 771 763 757 764 761 763
786 788 766 767 783 778 782 764 756 751 750 756 756 762 766 762 767 764 773 770 757 757 774 779 784 800 784 757 750 760 768 788 817 808 809 814 818 758 759 751 755 750 752 758 766
795 781 765 765 791 784 767 755 750 755 759 760 763 759 758 768 778 765 764 764 760 769 783 782 797 812 798 774 765 772 770 783 796 795 797 808 806 756 753 755 754 755 758 762 772
798 789 770 765 767 774 775 767 762 754 761 761 766 765 766 771 768 773 770 766 763 772 774 778 794 802 818 801 788 790 776 784 798 817 802 794 782 766 759 760 761 756 755 765 771
796 786 786 790 782 779 777 775 772 771 761 761 771 773 776 782 781 780 772 768 765 774 775 786 803 791 790 780 778 780 778 773 789 788 796 780 779 769 761 759 759 755 756 761 766
800 800 793 793 782 779 781 780 777 769 765 771 776 773 776 785 795 797 793 794 795 782 781 784 803 791 798 783 779 780 775 774 772 769 769 767 770 753 752 755 759 760 759 762 762
804 803 801 794 788 785 783 778 772 768 766 767 776 781 789 793 790 789 787 787 788 792 796 795 796 802 810 789 787 794 775 769 764 760 762 775 758 751 760 762 766 765 763 764 764